Overview Statistics Trail Chart Weather Telemetry Raw packets
 

This is the latest recevied weather packets stored in our database for station/object KC3UTO. If no packets are shown the sender has not sent any weather packets the latest 10 day(s).

<< 1 2 3 4 5 6 7 >>
Time Temp. Humidity Pressure Rain* Wind** Luminosity Snow
1788554958 29.44° C 61% 1010.7 hPa 0 mm - 112 W/m² -
1788554654 28.89° C 61% 1010.7 hPa 0 mm - 114 W/m² -
1788554350 28.89° C 61% 1010.8 hPa 0 mm - 88 W/m² -
1788554046 28.89° C 60% 1010.7 hPa 0 mm - 90 W/m² -
1788553741 28.89° C 60% 1010.7 hPa 0 mm - 82 W/m² -
1788553437 28.89° C 61% 1010.7 hPa 0 mm - 98 W/m² -
1788553133 28.89° C 61% 1010.9 hPa 0 mm - 91 W/m² -
1788552833 28.89° C 60% 1010.9 hPa 0 mm - 107 W/m² -
1788552528 28.89° C 61% 1010.8 hPa 0 mm - 89 W/m² -
1788552226 28.89° C 61% 1010.8 hPa 0 mm - 105 W/m² -
1788551922 28.89° C 62% 1011.1 hPa 0 mm - 179 W/m² -
1788551620 29.44° C 60% 1011.2 hPa 0 mm - 196 W/m² -
1788551325 29.44° C 61% 1011.3 hPa 0 mm - 186 W/m² -
1788551014 28.89° C 63% 1011.3 hPa 0 mm - 242 W/m² -
1788550710 28.33° C 63% 1011.4 hPa 0 mm - 220 W/m² -
1788550405 28.33° C 64% 1011.5 hPa 0 mm - 173 W/m² -
1788550100 28.33° C 64% 1011.6 hPa 0 mm - 174 W/m² -
1788549795 28.89° C 64% 1011.5 hPa 0 mm - 160 W/m² -
1788549492 28.33° C 63% 1011.6 hPa 0 mm - 214 W/m² -
1788549188 28.33° C 64% 1011.9 hPa 0 mm - 173 W/m² -
1788548884 28.33° C 63% 1011.7 hPa 0 mm - 199 W/m² -
1788548580 28.89° C 62% 1011.8 hPa 0 mm - 185 W/m² -
1788548276 29.44° C 61% 1011.9 hPa 0 mm - 121 W/m² -
1788547971 30° C 59% 1011.9 hPa 0 mm - 170 W/m² -
1788547670 30° C 59% 1011.9 hPa 0 mm - 190 W/m² -

* Rain latest hour (hover to see other rain measurements)
** Current wind speed in m/s (hover to see current wind gust speed)